Weather in Tobseda

Russia / Nenets Autonomous Okrug     68°35′23″N   52°18′03″E
temp.,
°C
wind,
m/s
gust,
m/s
humid.,
%
clouds,
%
prec.,
mm/h
press.,
hPa
HPBL,
m
1 march, mon
mon100:00−8ssw61093100 0.1 1002216
03:00−7ssw91494100 0.5 999447
06:00−4ssw91595100 1.3 994568
09:00−4ssw101595100 2.7 989627
12:00−3ssw101495100 2.6 985768
15:00−1wsw5797100 4.3 982333
18:000wnw81493100 1.2 981500
21:000w71296100 1.4 982374
2 march, tue
tue200:00−1w61095100 0.1 981309
03:00−2wsw5896100 0.2 982173
06:00−3wsw5896100 0.3 983196
09:00−4nw3497100 0.8 98480
12:00−6wnw339099 0.0 98527
15:00−9w238982 0.0 98621
18:00−10sw238837 0.0 98621
21:00−12ese239219 0.0 98721
3 march, wed
wed300:00−12e569563 0.1 988105
03:00−15ene699582 0.2 990213
06:00−18ne61096100 0.1 991217
09:00−18nne6995100 0.1 992252
12:00−16nne6893100 0.0 993344
15:00−14n6993100 0.1 994384
18:00−13n6994100 0.3 994286
21:00−13nne61094100 0.6 994307
4 march, thu
thu400:00−14ne71094100 0.4 994329
03:00−15ne71194100 0.7 995447
06:00−17ne71194100 0.3 995452
09:00−17ne81192100 0.6 996510
12:00−18ne81192100 0.0 997485
15:00−20ne71194100 0.1 998325
18:00−21nne61097100 0.0 999217
21:00−23nne5998100 0.0 999169
5 march, fri
fri500:00−23nne61097100 0.0 1000233
03:00−23nne61097100 0.1 1000243
06:00−21nne6995100 0.1 1000412
09:00−20nne6893100 0.1 1001532
12:00−20n6892100 0.1 1002593
15:00−20n7893100 0.1 1003534
18:00−21n6894100 0.1 1004405
21:00−22n6894100 0.1 1005439